TimePDT,TemperatureF,Dew PointF,Humidity,Sea Level PressureIn,VisibilityMPH,Wind Direction,Wind SpeedMPH,Gust SpeedMPH,PrecipitationIn,Events,Conditions,WindDirDegrees,DateUTC
12:52 AM,53.1,43.0,69,30.09,10.0,South,4.6,-,N/A,,Clear,180,2012-06-20 07:52:00
1:52 AM,51.1,42.1,71,30.10,10.0,SE,3.5,-,N/A,,Clear,140,2012-06-20 08:52:00
2:52 AM,50.0,42.1,74,30.10,10.0,ESE,3.5,-,N/A,,Clear,120,2012-06-20 09:52:00
3:52 AM,48.0,42.1,80,30.12,10.0,Calm,Calm,-,N/A,,Clear,0,2012-06-20 10:52:00
4:52 AM,45.0,39.0,80,30.12,10.0,NNE,5.8,-,N/A,,Clear,20,2012-06-20 11:52:00
5:52 AM,46.9,39.0,74,30.14,10.0,NNE,4.6,-,N/A,,Clear,30,2012-06-20 12:52:00
6:52 AM,51.1,41.0,68,30.15,10.0,Calm,Calm,-,N/A,,Clear,0,2012-06-20 13:52:00
7:52 AM,55.9,43.0,62,30.16,10.0,Calm,Calm,-,N/A,,Clear,0,2012-06-20 14:52:00
8:52 AM,61.0,44.1,54,30.15,10.0,Calm,Calm,-,N/A,,Clear,0,2012-06-20 15:52:00
9:52 AM,64.4,42.8,45,30.15,10.0,ESE,5.8,-,N/A,,Clear,120,2012-06-20 16:52:00
10:52 AM,69.1,42.1,38,30.13,10.0,SE,8.1,-,N/A,,Clear,130,2012-06-20 17:52:00
11:52 AM,72.0,39.0,30,30.11,10.0,ESE,9.2,-,N/A,,Clear,120,2012-06-20 18:52:00
12:52 PM,75.0,39.0,27,30.09,10.0,Variable,4.6,-,N/A,,Clear,0,2012-06-20 19:52:00
1:52 PM,77.0,37.9,24,30.06,10.0,ENE,6.9,-,N/A,,Clear,60,2012-06-20 20:52:00
2:52 PM,80.1,36.0,20,30.03,10.0,SE,12.7,21.9,N/A,,Clear,130,2012-06-20 21:52:00
3:52 PM,80.1,36.0,20,30.00,10.0,Variable,5.8,-,N/A,,Clear,0,2012-06-20 22:52:00
4:52 PM,79.0,36.0,21,29.99,10.0,Calm,Calm,-,N/A,,Clear,0,2012-06-20 23:52:00
5:52 PM,80.1,36.0,20,29.96,10.0,SSE,9.2,-,N/A,,Clear,160,2012-06-21 00:52:00
6:52 PM,80.1,36.0,20,29.94,10.0,SE,5.8,-,N/A,,Clear,140,2012-06-21 01:52:00
7:52 PM,77.0,39.0,25,29.94,10.0,ENE,10.4,-,N/A,,Clear,70,2012-06-21 02:52:00
8:52 PM,73.0,41.0,31,29.92,10.0,ENE,8.1,-,N/A,,Clear,70,2012-06-21 03:52:00
9:52 PM,69.1,41.0,36,29.93,10.0,ENE,8.1,-,N/A,,Clear,60,2012-06-21 04:52:00
10:52 PM,66.9,39.9,37,29.93,10.0,ENE,9.2,-,N/A,,Clear,70,2012-06-21 05:52:00
11:52 PM,64.0,41.0,43,29.92,10.0,NE,6.9,-,N/A,,Clear,50,2012-06-21 06:52:00